Wind_Speed
11 10 10 9 9 8 7 6 6 6 6 6 5 4 4 4 3 4 4 5 5 5 5 5 5 6 6 7 6 6 6 6 6 5 5 5 5 5 5 5 5 5 5
11 10 10 10 9 8 7 7 7 6 6 5 5 5 4 4 4 5 5 5 5 5 5 5 6 6 6 6 6 6 7 6 6 6 6 7 7 7 7 7 7 6 7
13 11 10 10 10 9 8 7 7 7 6 5 5 4 4 4 4 5 5 5 5 5 5 5 6 6 5 6 6 6 6 6 6 7 6 7 7 8 9 9 8 8 8
14 12 10 10 9 9 8 7 7 7 6 5 4 4 4 4 4 4 5 5 5 5 5 6 6 6 5 5 6 5 5 5 6 7 7 8 8 8 9 9 9 9 9
14 13 11 10 9 9 8 7 7 6 6 5 4 4 4 4 4 4 4 4 5 5 5 6 6 5 5 6 7 7 6 7 7 7 8 8 8 9 9 9 10 10 10
14 13 12 11 10 9 8 7 7 6 5 5 4 4 4 4 3 3 4 4 4 4 5 5 5 5 5 5 6 7 7 7 7 8 8 8 9 9 9 9 9 10 11
14 14 13 12 11 10 9 8 7 6 5 5 4 3 2 2 2 2 3 3 3 4 4 4 4 4 5 6 6 7 7 7 7 8 8 8 9 9 9 10 10 10 11
15 14 14 13 12 11 10 9 8 7 6 5 4 3 2 1 1 2 2 3 4 4 4 4 3 4 4 5 6 7 7 7 7 8 8 8 9 9 9 9 10 10 10
17 16 15 14 13 12 11 10 9 7 6 5 4 3 2 2 1 1 2 3 4 4 4 4 4 5 5 6 6 7 7 7 7 7 7 8 8 9 9 10 10 11 11
16 16 15 15 13 12 11 10 9 8 7 5 4 3 2 2 1 1 2 3 4 4 4 5 5 6 6 6 6 7 7 7 7 8 8 8 9 9 9 10 10 11 12
16 16 15 15 13 12 11 10 9 8 7 6 5 4 3 3 2 2 3 3 4 4 5 5 5 6 6 7 7 7 7 8 8 9 9 9 10 10 10 11 11 12 12
18 17 16 15 14 13 12 11 10 9 8 7 6 5 4 3 3 3 4 4 4 5 5 5 6 6 7 7 8 8 8 9 9 10 10 10 11 11 12 12 12 13 13
18 17 17 16 15 14 13 12 11 10 9 8 7 6 5 5 5 5 5 5 6 6 6 6 7 7 7 8 9 9 10 10 11 11 12 13 13 13 14 14 14 14 15
19 19 18 17 16 14 14 13 12 11 10 9 8 7 7 6 6 6 7 7 7 7 7 7 8 8 9 9 10 11 12 13 13 14 14 15 15 16 16 16 17 17 17
19 19 18 17 16 15 15 14 13 12 11 11 10 9 8 7 7 8 8 8 8 8 9 9 10 11 12 12 13 14 15 15 16 16 17 17 18 18 19 19 19 20 20
18 19 19 18 18 17 16 15 14 13 12 12 11 10 10 9 9 9 10 10 10 11 11 12 12 13 14 15 16 17 17 18 18 19 20 20 20 21 21 21 22 22 22
18 19 19 19 18 17 16 16 15 14 13 13 12 11 11 11 11 11 12 12 13 13 14 15 15 16 17 18 18 19 20 20 21 22 22 22 23 23 23 24 24 25 25
17 18 19 19 18 17 17 16 15 15 14 14 13 13 13 13 13 14 14 15 15 16 17 17 18 19 20 21 21 22 22 23 23 24 24 25 26 26 26 27 27 28 28
18 18 18 18 18 18 17 17 17 16 16 15 15 14 15 15 16 16 17 17 18 19 19 20 21 22 23 23 24 25 25 26 26 27 27 27 28 29 29 30 30 31 31
17 17 17 18 18 19 18 17 18 18 17 17 17 17 17 17 18 19 19 20 21 21 22 23 24 25 25 26 26 27 27 28 29 30 30 30 31 31 32 33 34 34 34
18 17 17 18 18 18 18 19 19 19 19 19 19 19 20 20 21 21 22 23 23 24 25 26 27 27 28 29 29 30 31 32 32 33 33 33 34 34 35 36 36 37 37
18 18 18 18 18 18 19 19 19 20 21 21 21 22 22 23 23 24 25 26 26 27 28 29 29 30 31 32 33 34 35 35 35 37 38 37 38 38 38 39 40 39 40
18 19 19 18 18 19 20 20 21 21 22 23 23 24 24 25 25 27 28 28 29 30 31 32 32 33 34 35 36 37 38 38 38 39 41 41 42 42 42 43 44 44 44
17 18 18 19 19 20 21 22 22 23 24 24 25 26 26 27 28 29 29 30 31 32 33 34 35 36 37 38 38 39 40 41 41 42 44 44 44 45 45 45 46 46 46
18 19 20 20 20 21 22 23 24 24 25 26 26 27 28 29 30 31 32 32 33 34 35 36 37 38 38 39 40 41 42 43 44 44 46 47 47 48 47 47 48 48 48
20 20 21 22 23 23 25 25 26 27 27 27 29 30 31 32 32 33 34 34 35 36 37 38 39 39 40 41 42 43 44 46 46 46 48 49 49 50 49 48 49 50 50
Wind_Direction
243 244 242 242 242 240 238 232 225 220 219 221 222 225 239 248 259 272 279 284 282 284 285 288 291 287 288 293 295 290 285 268 264 263 271 274 271 268 271 275 277 273 273
245 244 245 244 239 238 239 230 226 221 217 221 221 233 243 241 248 265 274 279 283 286 293 295 293 289 291 293 294 294 289 274 268 266 272 271 270 269 270 272 270 273 271
245 244 245 244 238 239 238 233 225 216 213 219 226 237 246 249 253 263 270 278 282 282 288 299 301 293 293 294 295 296 295 283 273 272 278 278 276 275 270 271 271 273 271
243 241 242 241 238 239 235 227 217 212 215 223 233 245 252 257 265 270 274 278 283 288 297 300 300 298 292 295 297 299 296 296 288 279 279 280 281 281 276 270 272 273 270
240 241 240 241 237 233 228 217 210 211 215 222 234 243 252 259 267 274 279 284 289 294 300 303 303 300 297 297 300 296 290 295 295 291 288 289 285 282 281 275 274 276 276
238 239 237 238 230 225 218 213 211 211 213 217 226 237 247 256 271 284 292 302 312 308 310 314 311 307 310 311 311 303 295 297 300 303 299 296 296 290 285 282 282 282 282
233 234 234 232 222 217 216 214 212 209 211 215 225 230 238 254 274 292 302 313 318 327 327 323 316 314 309 309 316 317 311 305 304 306 308 302 303 298 290 282 282 284 288
230 230 228 225 219 216 215 212 211 212 215 218 219 223 226 252 276 314 326 321 328 334 339 345 346 335 320 319 321 323 323 321 312 308 309 307 305 303 300 296 293 289 288
230 228 225 221 216 216 215 214 214 214 217 219 222 217 222 237 260 327 341 339 342 348 351 355 355 350 340 329 331 328 330 328 324 323 321 319 320 316 309 303 299 299 298
226 224 221 217 215 215 216 216 217 219 218 212 210 207 206 212 227 280 335 339 344 348 350 354 355 356 354 346 334 329 331 329 329 326 323 321 321 321 317 314 310 306 304
222 219 218 215 214 216 214 214 219 218 215 212 213 216 225 235 255 287 317 329 336 338 340 348 355 350 348 346 342 339 335 330 326 326 322 319 317 316 314 312 309 309 308
217 216 217 214 214 216 217 218 220 218 218 219 223 230 242 253 268 280 298 309 316 323 328 337 342 340 339 337 336 336 333 331 326 324 322 318 314 312 312 311 308 307 307
217 216 214 214 214 218 219 219 222 222 223 224 229 236 245 258 269 281 291 299 306 310 316 322 327 329 330 328 327 327 325 324 321 320 320 318 314 311 311 310 308 306 305
217 215 214 214 215 218 219 221 225 225 226 229 233 239 247 256 272 283 290 298 304 306 310 315 318 318 319 319 319 319 317 315 314 314 314 313 311 308 307 306 306 303 302
216 216 215 214 216 219 222 224 226 228 230 231 234 239 246 257 273 282 289 295 299 301 304 307 309 309 310 311 312 311 311 310 310 309 309 309 308 307 305 303 302 299 298
215 218 215 217 219 224 226 227 227 230 232 234 236 241 248 261 274 282 287 292 294 296 298 301 303 303 304 305 306 306 307 306 306 305 305 305 305 304 304 303 301 299 296
217 220 221 221 222 225 226 227 225 228 231 235 241 247 255 264 272 278 283 287 291 294 297 300 301 301 302 303 304 304 304 304 304 304 303 303 303 302 301 300 299 297 295
219 223 224 223 222 224 226 227 224 229 234 239 245 252 259 265 271 277 282 286 289 292 296 299 300 300 301 302 303 304 304 302 302 301 301 301 301 301 300 299 299 298 296
220 222 226 225 222 224 227 229 229 233 239 243 250 256 262 268 273 278 283 285 288 291 294 296 297 298 299 300 300 301 302 302 302 301 300 299 299 299 298 298 298 298 296
221 223 226 226 226 228 230 233 234 237 243 249 255 261 266 271 276 280 283 286 288 290 292 293 295 296 296 296 297 297 299 299 300 299 299 298 297 297 296 297 297 296 294
224 225 228 229 232 233 235 236 240 243 249 254 260 264 268 272 276 280 283 285 287 289 290 292 293 294 294 295 295 295 295 296 296 297 296 296 297 296 295 295 295 293 292
228 231 234 235 236 238 240 242 245 249 253 257 261 266 270 273 277 280 283 284 286 288 289 291 291 292 293 294 294 294 294 295 295 295 295 295 296 296 295 294 294 292 291
234 237 237 238 240 243 243 245 248 253 257 261 264 267 271 274 278 281 282 284 286 287 288 289 291 291 292 293 294 294 294 294 295 295 295 295 295 296 295 295 294 293 292
236 237 237 239 242 245 246 248 253 258 261 264 266 269 272 276 280 282 284 286 287 287 289 290 291 291 293 294 294 294 294 294 294 295 295 295 295 295 295 294 293 293 292
240 243 243 244 247 249 251 254 258 262 265 266 267 270 273 278 281 282 284 285 286 287 288 291 291 291 292 294 294 294 294 294 294 294 295 295 295 295 295 293 293 292 291
246 247 249 250 253 256 256 258 261 263 266 268 270 272 275 278 280 282 284 285 285 285 288 290 291 291 292 293 293 294 294 295 295 295 295 295 295 295 294 293 293 292 291
Height
5885 5886 5887 5888 5888 5889 5890 5890 5891 5891 5892 5893 5893 5894 5895 5896 5897 5896 5897 5897 5898 5898 5898 5899 5899 5899 5900 5900 5900 5900 5900 5900 5901 5901 5902 5902 5902 5903 5903 5903 5904 5904 5904
5883 5884 5885 5886 5887 5888 5889 5889 5890 5891 5892 5892 5893 5894 5895 5895 5896 5896 5896 5897 5897 5897 5898 5898 5898 5898 5899 5899 5899 5899 5899 5899 5900 5900 5901 5901 5901 5902 5902 5902 5902 5902 5903
5882 5883 5884 5885 5886 5887 5888 5889 5889 5890 5891 5892 5893 5893 5894 5895 5895 5896 5896 5896 5896 5896 5897 5897 5897 5898 5898 5898 5898 5898 5898 5898 5899 5899 5899 5900 5900 5900 5900 5900 5901 5901 5901
5880 5882 5883 5884 5885 5886 5887 5888 5889 5890 5890 5891 5892 5892 5893 5894 5894 5895 5895 5895 5895 5896 5896 5896 5896 5897 5897 5897 5898 5898 5898 5897 5898 5898 5898 5898 5898 5898 5898 5898 5899 5899 5899
5878 5880 5882 5883 5884 5885 5886 5887 5888 5889 5890 5891 5891 5892 5893 5893 5894 5894 5894 5894 5895 5895 5895 5895 5895 5896 5896 5896 5896 5896 5896 5896 5896 5896 5896 5896 5896 5896 5896 5896 5897 5897 5897
5876 5878 5880 5881 5883 5884 5885 5886 5887 5888 5889 5890 5891 5891 5892 5892 5893 5893 5894 5894 5894 5894 5894 5894 5894 5894 5895 5895 5895 5895 5895 5895 5895 5895 5895 5894 5894 5894 5894 5894 5894 5894 5894
5874 5876 5878 5880 5881 5883 5884 5886 5887 5888 5888 5889 5890 5891 5891 5892 5892 5893 5893 5893 5893 5893 5893 5893 5893 5893 5894 5894 5894 5894 5894 5893 5893 5893 5893 5893 5892 5892 5892 5892 5892 5892 5892
5872 5874 5876 5878 5880 5882 5883 5885 5886 5887 5888 5889 5889 5890 5891 5892 5892 5892 5893 5893 5893 5893 5893 5893 5893 5893 5893 5893 5893 5892 5892 5892 5892 5892 5891 5891 5891 5890 5890 5890 5889 5889 5889
5869 5871 5874 5876 5878 5880 5882 5883 5885 5886 5887 5888 5889 5890 5891 5891 5892 5892 5892 5892 5892 5892 5892 5892 5892 5892 5892 5892 5891 5891 5891 5891 5890 5890 5890 5889 5889 5888 5888 5887 5887 5887 5887
5866 5869 5871 5874 5876 5878 5880 5882 5884 5885 5886 5887 5888 5889 5890 5891 5891 5892 5892 5892 5892 5892 5892 5891 5891 5891 5891 5891 5890 5890 5890 5890 5889 5889 5888 5888 5887 5887 5886 5885 5885 5884 5884
5864 5867 5869 5872 5875 5877 5879 5881 5883 5884 5885 5886 5888 5889 5889 5890 5890 5891 5891 5892 5891 5891 5891 5891 5891 5891 5890 5890 5889 5889 5888 5888 5887 5887 5886 5886 5885 5884 5884 5883 5882 5882 5881
5862 5865 5868 5870 5873 5875 5877 5879 5881 5883 5884 5885 5887 5888 5889 5889 5890 5890 5890 5891 5891 5891 5890 5890 5890 5890 5889 5889 5888 5887 5887 5886 5886 5885 5884 5883 5882 5882 5881 5880 5879 5879 5878
5860 5863 5866 5869 5871 5873 5876 5878 5880 5881 5882 5884 5885 5886 5887 5888 5889 5889 5889 5889 5889 5889 5889 5889 5889 5888 5888 5888 5887 5886 5885 5884 5884 5883 5882 5881 5880 5879 5878 5877 5876 5875 5874
5858 5861 5863 5866 5869 5871 5874 5876 5878 5879 5881 5882 5884 5885 5886 5887 5887 5888 5888 5888 5888 5888 5888 5888 5887 5887 5886 5886 5885 5884 5883 5882 5881 5880 5879 5878 5877 5876 5875 5874 5872 5871 5870
5854 5858 5861 5864 5867 5869 5872 5874 5875 5877 5879 5880 5881 5883 5884 5885 5885 5886 5886 5886 5886 5886 5886 5886 5885 5885 5884 5883 5882 5881 5880 5879 5878 5877 5876 5875 5874 5872 5871 5870 5868 5867 5866
5852 5855 5858 5861 5864 5867 5869 5871 5873 5875 5876 5878 5879 5880 5881 5882 5883 5883 5883 5884 5884 5884 5883 5883 5883 5882 5881 5880 5879 5878 5877 5876 5874 5873 5872 5871 5870 5868 5867 5865 5864 5862 5860
5849 5852 5855 5858 5861 5863 5866 5868 5870 5872 5874 5876 5877 5878 5879 5880 5880 5881 5881 5881 5881 5880 5880 5880 5879 5878 5877 5876 5875 5874 5873 5871 5870 5869 5867 5866 5864 5863 5861 5859 5858 5856 5855
5847 5850 5852 5855 5857 5860 5862 5865 5867 5869 5871 5873 5874 5875 5876 5877 5877 5877 5878 5877 5877 5877 5876 5876 5875 5874 5873 5872 5870 5869 5867 5866 5865 5863 5862 5860 5858 5856 5855 5853 5851 5849 5848
5844 5846 5849 5852 5854 5857 5859 5862 5864 5866 5868 5870 5871 5872 5873 5873 5874 5874 5874 5873 5873 5872 5872 5871 5870 5869 5868 5866 5865 5863 5862 5860 5859 5857 5856 5854 5852 5850 5848 5846 5844 5842 5840
5841 5843 5846 5848 5851 5853 5856 5858 5860 5863 5864 5866 5867 5868 5869 5869 5869 5869 5869 5868 5868 5867 5866 5865 5864 5863 5862 5860 5859 5857 5856 5854 5852 5850 5848 5846 5844 5842 5840 5838 5836 5833 5831
5838 5840 5843 5845 5847 5850 5852 5854 5856 5858 5860 5862 5863 5863 5864 5864 5864 5864 5863 5863 5862 5861 5860 5859 5858 5857 5855 5854 5852 5850 5849 5847 5845 5842 5840 5838 5836 5834 5831 5829 5826 5824 5821
5835 5837 5839 5842 5844 5846 5848 5850 5852 5854 5855 5856 5857 5858 5858 5858 5858 5858 5857 5856 5855 5854 5853 5852 5851 5849 5847 5846 5844 5842 5840 5838 5836 5834 5831 5829 5826 5824 5821 5819 5816 5813 5810
5831 5834 5836 5838 5840 5842 5844 5845 5847 5849 5850 5851 5851 5852 5852 5852 5852 5851 5850 5849 5848 5847 5845 5844 5843 5841 5839 5837 5834 5832 5830 5828 5826 5823 5820 5818 5815 5813 5810 5807 5804 5800 5798
5828 5830 5832 5834 5835 5837 5839 5840 5841 5843 5844 5844 5845 5845 5845 5845 5845 5844 5842 5841 5840 5838 5837 5836 5834 5832 5830 5827 5825 5822 5820 5818 5816 5812 5808 5806 5804 5801 5798 5794 5790 5787 5784
5824 5825 5827 5829 5831 5832 5834 5835 5836 5836 5837 5837 5838 5838 5838 5837 5836 5835 5834 5833 5832 5830 5828 5826 5825 5823 5820 5818 5815 5812 5809 5806 5804 5802 5797 5793 5791 5788 5785 5781 5777 5773 5770
5819 5821 5822 5824 5826 5827 5828 5828 5829 5830 5830 5830 5830 5830 5830 5829 5828 5826 5825 5824 5822 5820 5819 5817 5815 5813 5810 5807 5804 5801 5798 5794 5791 5788 5784 5780 5777 5773 5771 5768 5763 5759 5755